This is the latest recevied weather packets stored in our database for station/object DH1FR-13. If no packets are shown the sender has not sent any weather packets the latest 10 day(s).
| Time | Temp. | Humidity | Pressure | Rain* | Wind** | Luminosity | Snow |
|---|---|---|---|---|---|---|---|
| 1787961001 | 15.56° C | 85% | 1017 hPa | 0 mm | 0 m/s | - | - |
| 1787960401 | 15.56° C | 84% | 1017.1 hPa | 0 mm | 0 m/s | - | - |
| 1787959800 | 16.11° C | 82% | 1017.1 hPa | 0 mm | 0 m/s | - | - |
| 1787959201 | 15.56° C | 83% | 1017.4 hPa | 0 mm | 0 m/s | - | - |
| 1787958601 | 16.11° C | 82% | 1017.3 hPa | 9.4 mm | 0 m/s | - | - |
| 1787958000 | 16.11° C | 82% | 1017 hPa | 9.4 mm | 0 m/s | - | - |
| 1787957400 | 16.11° C | 80% | 1017.1 hPa | 9.4 mm | 0 m/s | - | - |
| 1787956801 | 16.11° C | 79% | 1017 hPa | 9.4 mm | 0 m/s | - | - |
| 1787956201 | 16.11° C | 81% | 1016.6 hPa | 9.4 mm | 0 m/s | - | - |
| 1787955601 | 16.11° C | 82% | 1016.4 hPa | 9.4 mm | 0 m/s | - | - |
| 1787955000 | 16.11° C | 84% | 1016.3 hPa | 9.4 mm | 0 m/s | - | - |
| 1787954401 | 16.11° C | 86% | 1016.2 hPa | 9.4 mm | 0 m/s | - | - |
| 1787953800 | 15.56° C | 90% | 1015.9 hPa | 9.4 mm | 0 m/s | - | - |
| 1787953200 | 15.56° C | 93% | 1016 hPa | 9.4 mm | 0 m/s | - | - |
| 1787952600 | 15.56° C | 92% | 1015.9 hPa | 9.4 mm | 0 m/s | - | - |
| 1787952000 | 16.11° C | 90% | 1015.8 hPa | 9.4 mm | 0 m/s | - | - |
| 1787951401 | 16.67° C | 87% | 1015.2 hPa | 9.4 mm | 0 m/s | - | - |
| 1787950801 | 16.67° C | 86% | 1015.4 hPa | 9.4 mm | 0 m/s | - | - |
| 1787950200 | 16.67° C | 85% | 1015.7 hPa | 9.4 mm | 0 m/s | - | - |
| 1787949600 | 16.67° C | 87% | 1015.5 hPa | 9.4 mm | 0 m/s | - | - |
| 1787949000 | 17.22° C | 87% | 1015.4 hPa | 9.4 mm | 0 m/s | - | - |
| 1787948402 | 17.22° C | 92% | 1015.1 hPa | 9.4 mm | 0 m/s | - | - |
| 1787947800 | 17.22° C | 90% | 1014.6 hPa | 9.4 mm | 0 m/s | - | - |
| 1787947200 | 17.22° C | 90% | 1014.6 hPa | 9.4 mm | 0 m/s | - | - |
| 1787946600 | 17.22° C | 91% | 1014.6 hPa | 9.4 mm | 0 m/s | - | - |
* Rain latest hour (hover to see other rain measurements)
** Current wind speed in m/s (hover to see current wind gust speed)